User: anonymous   Login
Location: Northam
(31.6525°S, 116.6655°E)
Time: 10:37:17
(UTC+08:00)
Language:

CUBESAT XI-V - Orbit

View from above orbital plane
View from above orbital plane
View from above satellite
View from above satellite

Ground track
Ground track

The orbit data is extracted from the following two-line orbital elements,

1 28895U 05043F   21216.33937497  .00000134  00000-0  34490-4 0  9993
2 28895  98.0648 348.5480 0017915  62.3657 297.9362 14.63940086841016
Epoch (UTC): 04 August 2021 08:08:41
Eccentricity: 0.0017915
inclination: 98.0648°
perigee height: 668 km
apogee height: 693 km
right ascension of ascending node: 348.5480°
argument of perigee: 62.3657°
revolutions per day: 14.63940086
mean anomaly at epoch: 297.9362°
orbit number at epoch: 84101

The dashed part of the orbit path shows where the satellite is in the earth's shadow,  

DLR